Temp
-6 -6 -6 -6 -6 -6 -6 -6 -6 -6 -6 -7 -6 -6 -5 -5 -5 -4 -5 -5 -5 -5 -5 -5 -5 -5 -5 -6 -5 -6 -6 -7 -5 -4 -4 -3 -3 -3 -3 -3 -3 -3 -3 -3 -4
-6 -7 -7 -7 -7 -7 -6 -6 -6 -7 -7 -7 -7 -6 -6 -5 -5 -4 -5 -5 -5 -5 -5 -5 -5 -5 -5 -5 -5 -6 -7 -6 -5 -5 -4 -3 -3 -3 -3 -3 -3 -3 -3 -3 -3
-6 -7 -7 -7 -7 -7 -6 -6 -6 -7 -7 -7 -7 -6 -6 -5 -5 -5 -5 -5 -5 -5 -5 -5 -5 -5 -5 -5 -5 -5 -7 -6 -6 -5 -4 -4 -4 -3 -3 -3 -3 -3 -3 -3 -3
-7 -7 -7 -7 -7 -7 -7 -7 -6 -7 -7 -7 -7 -7 -6 -5 -5 -5 -5 -5 -5 -5 -5 -5 -5 -5 -5 -5 -5 -5 -6 -6 -5 -5 -5 -4 -4 -4 -4 -4 -4 -3 -3 -3 -3
-7 -7 -7 -7 -7 -6 -6 -6 -6 -6 -6 -7 -7 -7 -6 -5 -5 -5 -5 -5 -5 -5 -6 -5 -5 -6 -6 -5 -6 -5 -5 -5 -5 -5 -5 -5 -4 -4 -4 -4 -4 -3 -3 -3 -3
-6 -7 -7 -7 -7 -6 -6 -6 -6 -6 -6 -6 -7 -7 -6 -5 -5 -5 -5 -5 -5 -5 -5 -5 -5 -5 -6 -6 -6 -6 -5 -5 -5 -5 -5 -5 -4 -3 -4 -3 -3 -3 -3 -3 -3
-6 -6 -6 -6 -6 -6 -6 -6 -6 -6 -6 -6 -6 -7 -6 -6 -5 -5 -5 -5 -5 -6 -5 -5 -5 -6 -6 -6 -6 -6 -5 -4 -4 -4 -4 -5 -5 -4 -4 -3 -3 -3 -3 -3 -3
-6 -6 -6 -6 -6 -6 -6 -6 -6 -6 -6 -6 -6 -7 -6 -6 -5 -5 -5 -5 -5 -5 -5 -5 -5 -6 -6 -6 -6 -5 -5 -6 -4 -4 -4 -5 -5 -5 -5 -4 -3 -3 -2 -3 -3
-6 -6 -6 -6 -6 -6 -6 -6 -6 -6 -6 -6 -6 -6 -6 -5 -5 -5 -5 -5 -5 -5 -5 -5 -5 -5 -5 -5 -5 -5 -6 -6 -6 -4 -4 -4 -6 -5 -5 -4 -3 -2 -2 -2 -2
-6 -6 -6 -6 -6 -6 -6 -6 -6 -6 -6 -6 -6 -6 -6 -5 -5 -5 -5 -5 -5 -5 -5 -5 -5 -5 -5 -5 -6 -6 -6 -5 -5 -4 -4 -4 -4 -4 -4 -3 -3 -2 -2 -2 -2
-5 -5 -5 -5 -6 -6 -6 -6 -6 -6 -6 -6 -6 -6 -6 -6 -5 -5 -5 -5 -5 -5 -5 -5 -5 -5 -5 -5 -5 -5 -4 -4 -4 -4 -4 -4 -4 -5 -4 -4 -4 -3 -3 -3 -3
-5 -5 -5 -5 -6 -6 -6 -6 -6 -6 -5 -5 -6 -6 -6 -5 -5 -5 -5 -4 -5 -5 -5 -5 -5 -4 -4 -4 -5 -5 -5 -4 -4 -4 -4 -4 -4 -4 -4 -4 -4 -4 -3 -4 -4
-5 -5 -5 -5 -5 -5 -6 -6 -6 -5 -5 -5 -5 -5 -5 -5 -5 -5 -5 -5 -5 -6 -5 -5 -4 -4 -3 -4 -5 -5 -5 -4 -4 -4 -3 -3 -4 -4 -4 -4 -4 -3 -4 -4 -4
-5 -5 -5 -5 -5 -5 -5 -5 -5 -5 -6 -5 -6 -5 -5 -5 -5 -5 -5 -5 -5 -6 -6 -6 -5 -4 -4 -3 -4 -6 -4 -4 -4 -4 -5 -4 -5 -3 -3 -3 -3 -3 -4 -5 -5
-5 -5 -5 -5 -5 -5 -5 -5 -5 -6 -6 -6 -6 -6 -5 -5 -5 -5 -5 -5 -5 -6 -6 -6 -5 -4 -4 -3 -4 -4 -4 -4 -3 -4 -3 -5 -4 -5 -3 -3 -3 -3 -4 -4 -5
-4 -4 -5 -4 -5 -5 -5 -5 -5 -6 -6 -5 -5 -5 -5 -5 -5 -5 -5 -5 -5 -5 -6 -5 -4 -4 -4 -4 -4 -4 -4 -4 -3 -3 -5 -4 -3 -5 -4 -3 -3 -4 -4 -4 -5
-5 -4 -4 -4 -4 -4 -5 -5 -5 -5 -5 -5 -5 -5 -5 -5 -5 -5 -5 -5 -5 -5 -5 -5 -4 -4 -5 -5 -4 -4 -5 -6 -5 -5 -5 -3 -3 -5 -3 -3 -3 -4 -4 -4 -5
-5 -5 -4 -4 -4 -4 -4 -4 -4 -5 -5 -5 -5 -4 -4 -5 -5 -5 -5 -5 -5 -5 -6 -5 -5 -4 -4 -4 -5 -5 -5 -6 -5 -5 -5 -5 -3 -5 -3 -3 -4 -4 -4 -4 -4
-5 -5 -4 -5 -4 -4 -4 -4 -5 -4 -4 -5 -5 -5 -5 -5 -4 -4 -4 -5 -5 -5 -5 -5 -5 -4 -4 -5 -5 -5 -4 -5 -5 -5 -5 -5 -5 -3 -3 -3 -4 -4 -4 -4 -4
-5 -5 -5 -5 -5 -4 -4 -4 -4 -4 -4 -4 -5 -5 -5 -5 -5 -4 -4 -4 -4 -5 -5 -5 -5 -4 -4 -4 -4 -4 -4 -4 -4 -5 -5 -5 -5 -5 -3 -3 -4 -4 -4 -5 -4
-5 -5 -5 -5 -5 -5 -4 -5 -5 -5 -4 -4 -4 -5 -5 -5 -5 -5 -5 -5 -4 -5 -5 -4 -4 -5 -4 -3 -4 -3 -4 -4 -4 -5 -5 -5 -5 -5 -3 -4 -5 -5 -4 -4 -4
-5 -5 -6 -6 -6 -5 -5 -5 -5 -5 -5 -5 -5 -5 -5 -4 -5 -5 -5 -5 -5 -5 -5 -5 -4 -4 -4 -4 -3 -4 -3 -4 -4 -4 -4 -4 -5 -6 -4 -5 -5 -5 -6 -5 -5
-6 -6 -6 -7 -6 -6 -6 -6 -5 -6 -5 -5 -5 -5 -5 -5 -5 -5 -5 -5 -5 -5 -5 -5 -4 -4 -5 -4 -4 -4 -4 -4 -4 -5 -5 -6 -6 -6 -5 -5 -5 -6 -6 -6 -6
-7 -6 -6 -7 -7 -7 -7 -7 -6 -6 -6 -6 -6 -6 -6 -6 -6 -5 -6 -5 -5 -5 -5 -5 -5 -5 -7 -7 -7 -5 -5 -5 -5 -6 -6 -6 -7 -6 -6 -6 -6 -6 -6 -6 -7
-7 -7 -7 -7 -8 -8 -8 -8 -7 -7 -6 -7 -6 -6 -7 -6 -6 -6 -6 -6 -6 -6 -6 -6 -6 -6 -6 -6 -6 -6 -6 -6 -6 -6 -7 -7 -7 -8 -6 -7 -7 -7 -7 -7 -7
-8 -8 -8 -8 -8 -8 -8 -8 -8 -8 -7 -7 -7 -7 -7 -7 -7 -8 -8 -7 -7 -7 -7 -7 -7 -7 -7 -7 -7 -7 -7 -7 -7 -7 -7 -6 -7 -8 -7 -7 -7 -7 -8 -7 -7
-8 -8 -8 -8 -8 -9 -8 -9 -9 -9 -8 -8 -7 -7 -7 -7 -7 -8 -8 -8 -8 -7 -8 -8 -8 -8 -8 -9 -7 -7 -7 -7 -7 -7 -7 -7 -8 -8 -8 -8 -8 -8 -8 -8 -8
Height
5892 5893 5894 5895 5896 5897 5898 5900 5901 5901 5903 5904 5904 5906 5908 5913 5917 5919 5922 5925 5927 5928 5930 5932 5933 5935 5935 5935 5936 5936 5938 5940 5938 5937 5938 5937 5936 5934 5934 5934 5934 5935 5935 5935 5935
5891 5892 5893 5893 5895 5896 5897 5899 5900 5901 5902 5903 5904 5905 5908 5912 5916 5919 5922 5924 5927 5928 5931 5932 5934 5936 5936 5938 5938 5937 5943 5940 5939 5940 5940 5939 5938 5937 5937 5936 5936 5937 5937 5937 5937
5890 5891 5892 5893 5894 5894 5896 5897 5899 5900 5901 5902 5903 5904 5907 5912 5916 5918 5921 5924 5926 5928 5931 5933 5936 5938 5938 5940 5940 5940 5942 5942 5943 5942 5942 5942 5941 5940 5939 5939 5938 5938 5939 5939 5939
5889 5890 5891 5892 5892 5893 5894 5896 5898 5899 5900 5902 5903 5904 5907 5911 5915 5917 5920 5923 5925 5928 5930 5933 5936 5939 5940 5941 5942 5942 5942 5943 5944 5944 5944 5944 5942 5942 5941 5941 5941 5940 5941 5942 5942
5888 5888 5889 5890 5891 5892 5893 5895 5896 5898 5899 5900 5902 5903 5906 5910 5914 5917 5919 5922 5925 5927 5930 5933 5935 5938 5941 5942 5943 5944 5944 5945 5946 5946 5946 5945 5945 5945 5945 5945 5944 5943 5942 5943 5943
5886 5886 5887 5888 5889 5890 5892 5893 5895 5897 5898 5899 5901 5902 5905 5908 5912 5915 5918 5922 5924 5927 5930 5933 5936 5938 5941 5943 5945 5946 5947 5947 5948 5948 5949 5948 5949 5948 5949 5948 5948 5947 5946 5945 5945
5884 5884 5885 5886 5887 5888 5890 5892 5893 5895 5897 5898 5900 5901 5903 5908 5911 5914 5917 5921 5925 5928 5930 5933 5937 5940 5942 5944 5946 5947 5948 5950 5951 5951 5951 5951 5953 5951 5951 5951 5951 5950 5949 5948 5948
5881 5882 5883 5884 5885 5887 5888 5890 5891 5893 5895 5896 5898 5900 5902 5905 5909 5913 5917 5921 5924 5928 5931 5934 5938 5940 5943 5945 5947 5949 5951 5958 5953 5953 5954 5955 5957 5953 5953 5952 5952 5952 5950 5950 5950
5879 5880 5881 5882 5883 5885 5886 5888 5890 5891 5893 5894 5897 5898 5901 5903 5908 5912 5916 5920 5924 5929 5932 5935 5938 5941 5944 5946 5950 5951 5956 5954 5954 5954 5955 5956 5959 5955 5954 5954 5953 5953 5952 5951 5951
5877 5878 5879 5880 5881 5882 5884 5886 5887 5889 5890 5892 5895 5898 5900 5903 5907 5911 5915 5919 5923 5928 5932 5935 5938 5941 5944 5947 5955 5952 5955 5954 5954 5955 5955 5956 5956 5956 5956 5955 5955 5954 5954 5953 5952
5875 5876 5876 5878 5879 5881 5882 5883 5886 5887 5888 5890 5892 5894 5897 5901 5905 5909 5913 5917 5922 5927 5929 5933 5936 5940 5942 5944 5947 5949 5952 5954 5954 5955 5956 5956 5958 5958 5957 5957 5956 5955 5954 5953 5952
5872 5873 5873 5874 5876 5878 5878 5879 5881 5884 5886 5888 5890 5893 5895 5898 5902 5907 5912 5916 5920 5924 5928 5931 5933 5937 5940 5943 5946 5949 5951 5953 5955 5955 5957 5957 5958 5958 5957 5957 5956 5955 5953 5952 5952
5869 5870 5870 5871 5872 5874 5875 5876 5878 5880 5883 5886 5888 5891 5894 5897 5900 5905 5910 5915 5918 5921 5924 5926 5929 5935 5940 5942 5946 5948 5950 5952 5955 5956 5957 5958 5959 5957 5957 5956 5956 5954 5952 5950 5950
5867 5867 5867 5868 5870 5870 5872 5873 5875 5878 5882 5884 5886 5888 5892 5895 5898 5902 5907 5913 5916 5919 5921 5924 5929 5934 5938 5940 5945 5948 5948 5951 5953 5954 5962 5956 5960 5957 5956 5955 5955 5953 5951 5950 5949
5863 5864 5865 5865 5866 5868 5870 5871 5872 5876 5879 5881 5883 5887 5890 5895 5899 5901 5905 5909 5913 5916 5920 5925 5927 5932 5935 5938 5941 5943 5946 5948 5950 5951 5952 5956 5957 5957 5954 5954 5953 5951 5951 5950 5950
5858 5860 5861 5863 5864 5865 5866 5868 5870 5874 5875 5877 5880 5884 5888 5891 5894 5897 5901 5906 5909 5911 5916 5918 5923 5928 5932 5936 5939 5941 5944 5946 5947 5949 5953 5950 5953 5952 5949 5949 5948 5948 5947 5948 5947
5851 5854 5857 5858 5861 5861 5862 5865 5868 5869 5873 5875 5878 5881 5885 5888 5891 5895 5898 5902 5906 5910 5914 5917 5921 5926 5930 5932 5936 5938 5942 5946 5949 5951 5953 5946 5947 5949 5943 5945 5945 5944 5943 5942 5942
5844 5847 5851 5853 5855 5857 5859 5862 5864 5866 5868 5872 5874 5878 5882 5885 5888 5892 5896 5899 5902 5907 5912 5915 5920 5923 5927 5929 5933 5934 5938 5944 5945 5948 5950 5941 5943 5942 5941 5941 5940 5940 5939 5939 5938
5836 5838 5842 5846 5849 5852 5855 5857 5860 5861 5865 5868 5872 5874 5877 5881 5885 5889 5893 5897 5900 5904 5909 5912 5915 5917 5922 5923 5927 5929 5930 5935 5937 5938 5938 5941 5939 5937 5936 5937 5937 5936 5934 5933 5931
5829 5830 5833 5837 5841 5845 5848 5852 5854 5857 5861 5864 5867 5871 5874 5877 5880 5884 5887 5891 5895 5899 5903 5906 5909 5912 5912 5916 5920 5922 5925 5928 5930 5932 5933 5936 5934 5935 5930 5931 5931 5931 5929 5928 5927
5820 5823 5825 5828 5831 5836 5841 5845 5848 5851 5855 5858 5861 5865 5869 5872 5876 5879 5884 5887 5890 5894 5897 5901 5904 5907 5908 5911 5914 5917 5918 5922 5924 5927 5927 5931 5934 5925 5925 5925 5925 5923 5922 5920 5921
5810 5814 5816 5819 5823 5826 5832 5838 5842 5844 5848 5852 5855 5858 5862 5866 5870 5873 5878 5881 5884 5889 5893 5896 5898 5901 5905 5906 5907 5910 5911 5913 5915 5919 5918 5920 5924 5919 5917 5918 5916 5915 5914 5913 5912
5802 5804 5807 5810 5813 5817 5821 5828 5832 5835 5840 5845 5848 5851 5856 5859 5864 5867 5871 5873 5878 5880 5885 5888 5892 5895 5897 5897 5898 5900 5904 5906 5907 5909 5911 5912 5919 5911 5908 5909 5908 5907 5906 5906 5905
5795 5797 5798 5801 5805 5808 5812 5817 5824 5827 5831 5836 5840 5845 5849 5853 5857 5860 5864 5867 5871 5875 5877 5880 5884 5886 5894 5895 5892 5891 5894 5897 5899 5901 5904 5906 5907 5901 5900 5899 5899 5898 5898 5897 5896
5786 5788 5790 5792 5796 5800 5804 5807 5813 5818 5822 5827 5832 5836 5841 5844 5848 5853 5857 5861 5864 5867 5869 5873 5876 5877 5882 5880 5884 5885 5887 5888 5890 5893 5896 5901 5899 5897 5890 5890 5890 5889 5889 5888 5886
5779 5781 5783 5785 5787 5791 5796 5801 5803 5807 5813 5817 5822 5825 5828 5833 5839 5845 5849 5852 5856 5859 5862 5865 5868 5869 5873 5873 5876 5877 5878 5880 5881 5883 5884 5886 5885 5884 5881 5880 5880 5879 5879 5878 5876
5771 5773 5775 5778 5780 5783 5787 5791 5795 5800 5804 5807 5811 5815 5820 5825 5828 5834 5838 5842 5846 5850 5854 5857 5859 5861 5864 5865 5862 5867 5869 5869 5870 5872 5874 5875 5876 5870 5872 5870 5869 5868 5868 5867 5866
Wind_Speed
8 7 8 7 7 8 9 9 7 8 7 8 9 16 24 25 24 22 20 20 17 16 14 14 13 13 14 5 10 10 11 8 12 16 13 14 18 19 16 15 14 13 14 13 12
6 8 8 7 8 8 9 9 8 9 8 8 9 16 25 26 25 23 22 21 19 16 14 15 13 14 12 10 11 11 13 11 12 17 15 14 16 19 17 16 15 12 12 12 12
6 7 7 7 8 8 9 9 10 10 9 9 9 16 26 28 27 25 23 23 19 17 15 14 12 12 13 10 13 15 16 12 13 17 15 14 15 14 15 14 13 13 11 9 10
7 7 7 7 7 9 10 10 11 10 10 9 10 16 26 29 30 26 23 23 20 18 15 14 11 14 13 13 17 20 22 19 16 18 18 17 18 16 16 15 12 11 9 11 9
10 9 9 8 7 9 9 11 11 11 9 9 11 16 27 30 29 26 25 24 21 17 13 15 14 20 15 15 17 16 21 20 16 16 18 19 19 21 21 19 15 16 13 11 9
12 11 10 9 8 9 11 12 11 11 10 10 11 16 27 31 30 27 26 24 21 16 18 18 23 22 21 20 18 16 18 19 16 17 18 21 19 18 19 19 19 19 21 21 17
11 11 10 9 9 10 12 12 11 11 10 10 13 15 26 30 31 29 28 25 20 20 22 21 22 23 23 21 17 14 13 15 17 16 16 20 17 17 15 15 16 17 16 15 15
12 11 10 10 10 11 12 12 12 11 10 11 13 16 23 31 33 31 28 26 22 22 22 21 21 24 22 21 18 14 10 6 13 15 15 20 7 13 12 10 10 12 13 13 12
12 12 11 11 11 12 13 12 12 11 12 12 14 17 21 32 33 31 28 28 24 22 20 20 23 20 20 21 18 14 8 7 9 11 11 11 7 11 8 6 5 7 6 8 8
13 12 12 13 12 13 14 13 13 13 13 13 14 16 21 29 32 31 29 30 25 21 23 23 24 21 19 17 12 13 8 8 9 8 7 8 9 9 5 2 4 4 4 5 7
13 14 14 14 14 14 15 14 15 15 15 15 16 18 22 26 32 32 31 31 26 22 24 25 24 23 21 17 13 11 8 7 8 10 8 7 5 7 6 1 3 6 5 5 9
10 13 15 15 15 16 17 17 17 16 16 15 16 18 23 28 33 32 32 32 26 22 23 28 26 23 20 17 14 12 7 7 6 11 9 8 9 9 10 8 7 7 9 6 6
9 10 12 13 15 17 18 18 18 18 18 16 15 18 21 27 30 32 32 31 26 22 24 32 31 25 22 15 14 14 13 7 5 7 8 6 5 10 11 10 11 10 8 9 9
12 11 11 12 14 17 18 18 18 17 17 17 17 21 21 24 28 32 32 30 28 26 29 30 30 25 24 16 16 11 11 10 9 5 7 5 4 6 10 9 10 11 6 9 12
18 15 13 12 12 15 17 18 19 19 18 17 18 20 20 23 26 29 31 30 28 25 31 28 27 26 23 21 16 17 10 10 10 9 12 12 10 12 11 10 11 12 11 9 12
22 20 18 15 13 14 17 17 18 22 23 18 19 20 22 25 27 31 31 30 29 29 33 34 30 29 25 21 17 13 11 12 11 8 7 16 14 11 12 12 13 14 15 14 14
29 26 23 20 18 16 16 16 19 21 17 18 20 20 23 26 27 29 31 30 29 29 33 27 30 28 23 25 20 16 13 10 10 8 7 15 8 9 15 11 11 12 14 15 16
30 33 28 26 24 22 20 18 19 21 21 16 20 22 24 25 25 26 30 31 31 30 30 31 30 29 28 26 25 22 20 16 15 11 11 21 11 17 18 15 15 15 15 16 17
28 30 34 32 30 28 25 22 21 22 21 21 20 25 29 28 28 28 28 29 30 31 31 31 30 32 33 34 33 31 32 26 22 21 22 16 17 18 19 18 16 16 20 21 21
30 30 31 36 36 34 31 27 26 25 22 23 25 26 29 29 29 28 31 30 30 29 29 31 31 32 37 37 38 39 35 31 28 25 24 15 21 15 23 21 19 19 22 23 25
31 31 32 32 40 41 36 33 30 30 27 26 27 26 28 31 28 27 27 32 33 32 34 34 36 36 38 37 34 35 34 31 30 27 21 19 17 28 23 23 22 24 27 29 23
31 31 32 32 36 43 41 37 36 35 33 32 31 30 29 28 30 32 31 29 30 33 36 37 38 38 34 36 38 37 35 33 29 26 28 28 23 30 29 27 27 26 26 29 27
27 29 32 33 33 37 44 42 41 40 38 37 37 36 33 33 30 30 30 34 33 35 35 38 36 35 34 36 35 33 29 30 28 28 28 24 19 27 33 27 28 30 31 30 29
24 26 29 34 31 31 37 43 43 43 42 40 40 39 38 36 35 33 31 30 32 35 38 38 35 35 21 22 26 31 28 27 27 29 26 24 23 32 35 32 32 33 35 34 33
24 23 25 30 35 32 31 36 42 44 45 44 43 42 42 42 42 39 37 35 33 33 36 37 38 39 35 39 36 35 32 33 33 31 28 24 25 25 34 35 36 36 35 36 36
23 21 24 27 30 34 36 33 34 41 45 45 45 46 47 47 45 42 41 40 38 37 37 40 40 42 39 40 39 40 39 38 37 36 38 37 39 37 41 41 40 39 38 38 41
24 23 22 24 28 31 33 35 36 35 37 43 47 48 47 48 48 45 45 44 45 43 42 41 41 42 41 36 46 44 40 39 40 40 39 39 35 42 40 41 42 43 42 44 47
Wind_Direction
230 220 213 213 211 206 195 200 197 193 190 190 184 173 171 170 164 164 162 160 158 158 160 145 134 124 107 66 99 101 96 110 121 107 107 98 97 96 97 97 97 96 93 98 105
217 212 209 204 209 211 199 208 199 192 184 187 184 177 172 169 166 167 167 164 163 167 164 156 146 127 114 108 100 99 95 113 116 109 104 95 88 90 94 90 94 96 98 100 106
205 203 208 219 220 207 203 208 196 188 186 188 185 181 173 170 169 172 169 168 170 177 171 161 152 130 116 115 107 107 120 122 115 113 109 100 88 80 88 90 88 88 91 99 105
212 209 216 227 222 211 206 200 193 189 192 192 189 185 177 171 176 177 173 173 176 182 173 163 158 148 124 121 124 112 118 121 124 116 115 108 96 87 84 90 99 94 88 83 80
229 234 238 239 226 212 208 203 198 195 199 196 190 188 180 179 176 179 177 177 179 184 178 170 164 149 142 136 128 124 114 111 114 115 108 105 102 88 78 85 89 88 85 84 88
234 239 240 241 234 220 212 210 207 207 209 199 191 191 186 183 178 182 181 180 181 180 160 151 147 142 152 138 137 135 122 117 115 110 109 103 93 92 91 95 91 87 86 86 82
228 234 236 237 231 227 213 211 210 215 217 204 192 194 190 183 182 186 185 181 181 167 161 151 147 145 152 150 150 143 131 121 119 123 118 103 96 87 83 89 93 87 76 75 75
225 227 232 234 230 225 214 214 208 210 213 205 194 196 196 188 187 189 185 182 181 167 164 159 159 156 165 160 156 154 144 123 130 134 135 103 108 95 88 81 83 88 91 82 74
234 231 229 229 230 226 219 218 216 215 208 204 194 197 198 192 191 190 187 185 184 175 176 166 166 162 164 157 156 160 163 165 152 147 150 144 152 129 118 98 80 89 72 77 78
238 234 230 229 230 227 231 222 224 222 211 202 196 201 200 198 193 193 189 190 189 182 174 168 172 176 175 169 188 183 160 162 181 174 173 170 164 165 152 93 6 32 49 11 23
243 235 230 228 225 224 230 228 231 221 212 206 196 196 196 198 197 196 191 193 193 187 188 190 192 187 192 186 190 192 189 182 199 190 200 221 213 190 207 202 315 316 351 342 353
249 240 233 233 230 226 227 226 225 215 210 210 205 203 198 193 198 198 193 194 196 197 187 192 198 193 188 194 201 195 205 220 234 208 208 214 221 217 222 227 251 295 331 329 316
249 247 238 231 232 230 227 224 220 211 209 204 209 209 202 201 202 198 197 195 198 200 186 194 202 195 191 193 204 203 208 224 234 185 198 199 242 233 250 239 252 281 313 319 308
241 240 241 227 229 229 223 224 221 211 218 217 213 207 203 202 199 197 197 197 198 204 196 202 201 197 207 214 200 227 220 241 245 224 250 218 225 267 242 255 255 263 271 286 302
244 236 236 228 223 225 222 219 221 208 211 217 209 204 203 198 200 201 201 201 200 202 201 204 200 201 212 212 194 220 216 228 228 235 233 270 252 253 242 244 239 257 262 257 272
242 240 234 232 225 221 223 219 216 215 219 217 209 206 201 204 205 202 208 206 201 199 195 205 202 204 210 214 211 208 233 264 252 259 266 251 243 274 247 267 277 279 283 274 280
239 239 236 233 228 225 221 218 217 216 211 208 206 205 205 204 210 206 208 211 208 205 203 209 215 219 217 215 224 228 247 261 276 282 260 256 263 212 276 277 273 284 293 298 291
238 239 234 233 231 225 223 217 218 219 218 211 207 205 209 208 210 210 211 208 213 212 209 219 224 225 224 224 230 235 238 242 256 255 269 277 258 259 271 278 292 295 291 287 286
238 239 235 231 230 230 224 219 216 218 222 217 210 208 205 209 213 215 213 216 216 210 210 220 221 225 226 231 236 249 253 255 252 261 261 257 268 269 268 277 281 283 281 287 289
243 238 239 230 229 229 227 221 220 220 215 215 215 210 215 221 224 222 220 219 217 217 216 219 220 230 234 235 238 240 249 253 260 258 255 261 262 252 270 275 277 272 273 277 283
248 243 240 234 228 228 227 224 223 223 220 216 216 217 219 223 226 227 229 229 223 217 217 219 221 233 235 240 248 246 250 254 251 245 253 260 265 267 264 277 281 282 283 287 285
245 246 241 238 231 227 225 222 223 225 222 220 220 219 218 222 224 229 230 230 225 224 223 228 232 233 239 243 244 251 255 254 254 257 261 253 244 257 271 276 279 284 285 290 293
244 245 241 238 234 228 226 222 220 224 223 223 224 224 222 222 224 226 228 231 230 233 231 234 239 245 248 252 253 251 249 249 251 251 249 256 258 267 270 273 277 282 287 291 296
246 245 243 237 235 232 228 225 223 225 227 224 226 228 230 231 230 228 231 231 234 236 241 241 240 242 233 242 238 251 247 247 248 249 254 257 255 259 266 274 278 283 289 291 297
248 246 241 236 231 229 228 226 225 223 227 229 226 227 229 231 235 235 236 235 234 233 235 238 240 243 239 237 238 245 249 254 252 249 245 250 254 266 267 274 280 283 286 292 299
246 243 242 237 231 229 230 228 225 226 225 227 230 230 229 230 231 235 237 238 240 237 237 237 237 244 245 249 248 248 252 250 252 251 255 259 261 262 269 276 279 283 286 291 293
245 241 239 239 233 231 230 231 229 228 227 229 231 234 234 234 233 235 237 237 236 240 241 242 242 246 246 249 251 250 253 252 253 252 256 260 268 265 274 276 278 281 285 287 288